Preview of NWS' New Version of Forecast
This preview is not operational and should not be used for support decisions.

Regional Weather Roundup (RWR)

Issued by National Weather Service (NWS)

                            
000
ASUS45 KCYS 230110
RWRWY 

WYOMING REGIONAL WEATHER ROUNDUP
NATIONAL WEATHER SERVICE CHEYENNE WY
700 PM MDT FRI MAR 22 2019

NOTE:  "FAIR" INDICATES FEW OR NO CLOUDS BELOW 12,000 FEET
WITH NO SIGNIFICANT WEATHER AND/OR OBSTRUCTIONS TO VISIBILITY.

WYZ001-230200-
YELLOWSTONE NATIONAL PARK
  
CITY           SKY/WX    TMP DP  RH WIND       PRES   REMARKS
LK YELLOWSTONE   N/A     34  23  64 W6        30.00R WCI  29          
W YELLOWSTONE  NOT AVBL                                               

$$
WYZ002>013-054>058-071-098>099-230200-
NORTHERN WYOMING
  
CITY           SKY/WX    TMP DP  RH WIND       PRES   REMARKS
JACKSON        CLOUDY    37  28  70 SW6       29.99R WCI  32          
CODY           FAIR      54  23  30 SE9       29.87R                  
GREYBULL       FAIR      57  27  31 SE8       29.85R                  
WORLAND        FAIR      53  27  36 S13       29.86R                  
SHERIDAN       FAIR      51  33  50 E7        29.85R                  
BUFFALO        MOCLDY    50  31  48 SE16      29.87S                  
GILLETTE       CLOUDY    45  36  70 SE22G28   29.93R                  
HULETT         CLOUDY    43  34  70 SW10      29.96                   
NEWCASTLE      CLOUDY    41  36  81 E18G28    29.97S                  

$$
WYZ014>020-022>026-101>103-230200-
CENTRAL WYOMING
  
CITY           SKY/WX    TMP DP  RH WIND       PRES   REMARKS
BIG PINEY      CLOUDY    34  27  75 NE6       30.00R WCI  29          
PINEDALE       FAIR      32  27  80 CALM      30.01R                  
DUBOIS         MOCLDY    41  18  38 W20       29.92S                  
LANDER         FAIR      48  28  46 S3        29.86S                  
RIVERTON       FAIR      47  27  45 E3        29.88S                  
CASPER         LGT RAIN  37  35  92 SW15      29.96R WCI  28          
DOUGLAS        CLOUDY    40  39  97 CALM      29.96R                  

$$
WYZ021-027>030-104>119-230200-
SOUTHERN WYOMING
  
CITY           SKY/WX    TMP DP  RH WIND       PRES   REMARKS
EVANSTON       LGT SNOW  32  29  88 SW7       30.03R FOG     WCI  26  
KEMMERER       MOCLDY    32  30  93 W12       30.02R WCI  23          
ROCK SPRINGS   FAIR      36  25  64 W9        30.00R WCI  29          
DIXON          FAIR      37  27  66 S15       30.02S WCI  28          
RAWLINS        MOCLDY    38  29  70 SW12      29.98S WCI  30          
SARATOGA       FAIR      34  32  93 SE5       30.00S WCI  30          
LARAMIE        LGT SNOW  31  31 100 N14       29.96F VSB 3/4 WCI  21  
CHEYENNE       MIX PCPN  37  34  89 N14       29.93R WCI  28          
TORRINGTON     CLOUDY    46  43  89 CALM      29.93S                  
PINE BLUFFS    CLOUDY    43  37  81 N18G24    29.90S                  

$$